Time,TemperatureF,DewpointF,PressureIn,WindDirection,WindDirectionDegrees,WindSpeedMPH,WindSpeedGustMPH,Humidity,HourlyPrecipIn,Conditions,Clouds,dailyrainin,SoftwareType,DateUTC
2013-07-06 00:10:00,73.8,63.0,29.86,SE,146,2.0,11.0,69,0.00,,---,0.00,VWS V14.01,2013-07-06 05:10:00,
2013-07-06 00:25:00,73.6,63.6,29.86,SE,137,6.0,8.0,71,0.00,,---,0.00,VWS V14.01,2013-07-06 05:25:00,
2013-07-06 00:40:00,73.4,63.8,29.85,SSE,154,2.0,11.0,72,0.00,,---,0.00,VWS V14.01,2013-07-06 05:40:00,
2013-07-06 00:55:00,73.0,63.8,29.85,SE,142,6.0,11.0,73,0.00,,---,0.00,VWS V14.01,2013-07-06 05:55:00,
2013-07-06 01:10:00,72.7,63.5,29.85,SSE,148,2.0,11.0,73,0.00,,---,0.00,VWS V14.01,2013-07-06 06:10:00,
2013-07-06 01:25:00,72.4,63.7,29.86,ESE,111,1.0,11.0,74,0.00,,---,0.00,VWS V14.01,2013-07-06 06:25:00,
2013-07-06 01:40:00,72.0,63.7,29.85,SE,146,6.0,9.0,75,0.00,,---,0.00,VWS V14.01,2013-07-06 06:40:00,
2013-07-06 01:55:00,71.9,63.9,29.86,SE,138,5.0,9.0,76,0.00,,---,0.00,VWS V14.01,2013-07-06 06:55:00,
2013-07-06 02:10:00,71.7,63.7,29.86,SE,146,4.0,11.0,76,0.00,,---,0.00,VWS V14.01,2013-07-06 07:10:00,
2013-07-06 02:25:00,71.5,63.5,29.85,ESE,123,5.0,11.0,76,0.00,,---,0.00,VWS V14.01,2013-07-06 07:25:00,
2013-07-06 02:40:00,71.3,63.7,29.85,SE,127,6.0,12.0,77,0.00,,---,0.00,VWS V14.01,2013-07-06 07:40:00,
2013-07-06 02:55:00,71.0,63.4,29.85,ESE,118,8.0,13.0,77,0.00,,---,0.00,VWS V14.01,2013-07-06 07:55:00,
2013-07-06 03:10:00,70.6,63.4,29.85,ESE,122,5.0,13.0,78,0.00,,---,0.00,VWS V14.01,2013-07-06 08:10:00,
2013-07-06 03:25:00,70.2,63.4,29.85,SE,136,4.0,13.0,79,0.00,,---,0.00,VWS V14.01,2013-07-06 08:25:00,
2013-07-06 03:40:00,69.9,63.1,29.85,SE,131,4.0,11.0,79,0.00,,---,0.00,VWS V14.01,2013-07-06 08:40:00,
2013-07-06 03:55:00,69.6,63.2,29.86,SE,128,7.0,11.0,80,0.00,,---,0.00,VWS V14.01,2013-07-06 08:55:00,
2013-07-06 04:10:00,69.4,63.0,29.86,SE,139,5.0,7.0,80,0.00,,---,0.00,VWS V14.01,2013-07-06 09:10:00,
2013-07-06 04:25:00,69.3,63.2,29.86,SE,134,1.0,8.0,81,0.00,,---,0.00,VWS V14.01,2013-07-06 09:25:00,
2013-07-06 04:40:00,69.2,63.1,29.86,SE,128,5.0,7.0,81,0.00,,---,0.00,VWS V14.01,2013-07-06 09:40:00,
2013-07-06 04:55:00,68.8,63.1,29.86,SSE,153,0.0,9.0,82,0.00,,---,0.00,VWS V14.01,2013-07-06 09:55:00,
2013-07-06 05:10:00,68.9,62.8,29.86,SE,132,4.0,8.0,81,0.00,,---,0.00,VWS V14.01,2013-07-06 10:10:00,
2013-07-06 05:25:00,68.8,63.1,29.86,ESE,111,1.0,7.0,82,0.00,,---,0.00,VWS V14.01,2013-07-06 10:25:00,
2013-07-06 05:40:00,68.5,62.8,29.86,SE,137,4.0,7.0,82,0.00,,---,0.00,VWS V14.01,2013-07-06 10:40:00,
2013-07-06 05:55:00,68.4,62.7,29.87,East,99,0.0,6.0,82,0.00,,---,0.00,VWS V14.01,2013-07-06 10:55:00,
2013-07-06 06:10:00,68.4,63.0,29.87,ESE,123,1.0,5.0,83,0.00,,---,0.00,VWS V14.01,2013-07-06 11:10:00,
2013-07-06 06:25:00,68.4,63.0,29.88,SE,143,2.0,6.0,83,0.00,,---,0.00,VWS V14.01,2013-07-06 11:25:00,
2013-07-06 06:40:00,68.4,63.0,29.88,ESE,119,0.0,6.0,83,0.00,,---,0.00,VWS V14.01,2013-07-06 11:40:00,
2013-07-06 06:55:00,68.5,63.1,29.88,SE,128,4.0,6.0,83,0.00,,---,0.00,VWS V14.01,2013-07-06 11:55:00,
2013-07-06 07:10:00,69.4,63.7,29.88,SE,144,1.0,7.0,82,0.00,,---,0.00,VWS V14.01,2013-07-06 12:10:00,
2013-07-06 07:25:00,70.4,64.3,29.88,South,169,1.0,4.0,81,0.00,,---,0.00,VWS V14.01,2013-07-06 12:25:00,
2013-07-06 07:40:00,71.2,64.4,29.88,South,187,1.0,7.0,79,0.00,,---,0.00,VWS V14.01,2013-07-06 12:40:00,
2013-07-06 07:55:00,72.0,64.4,29.88,SE,135,2.0,7.0,77,0.00,,---,0.00,VWS V14.01,2013-07-06 12:55:00,
2013-07-06 08:10:00,72.4,64.8,29.88,SSE,165,5.0,7.0,77,0.00,,---,0.00,VWS V14.01,2013-07-06 13:10:00,
2013-07-06 08:25:00,73.0,65.0,29.88,SSE,155,5.0,8.0,76,0.00,,---,0.00,VWS V14.01,2013-07-06 13:25:00,
2013-07-06 08:40:00,74.7,65.9,29.88,SSE,155,2.0,9.0,74,0.00,,---,0.00,VWS V14.01,2013-07-06 13:40:00,
2013-07-06 08:55:00,76.6,66.1,29.88,South,173,2.0,11.0,70,0.00,,---,0.00,VWS V14.01,2013-07-06 13:55:00,
2013-07-06 09:10:00,78.0,67.0,29.88,South,184,6.0,13.0,69,0.00,,---,0.00,VWS V14.01,2013-07-06 14:10:00,
2013-07-06 09:25:00,79.1,66.8,29.88,South,184,5.0,14.0,66,0.00,,---,0.00,VWS V14.01,2013-07-06 14:25:00,
2013-07-06 09:40:00,78.5,66.2,29.88,South,170,5.0,17.0,66,0.00,,---,0.00,VWS V14.01,2013-07-06 14:40:00,
2013-07-06 09:55:00,78.7,66.4,29.87,South,190,5.0,14.0,66,0.00,,---,0.00,VWS V14.01,2013-07-06 14:55:00,
2013-07-06 10:10:00,80.0,66.7,29.87,SSE,164,4.0,14.0,64,0.00,,---,0.00,VWS V14.01,2013-07-06 15:10:00,
2013-07-06 10:25:00,80.7,67.8,29.87,South,175,1.0,11.0,65,0.00,,---,0.00,VWS V14.01,2013-07-06 15:25:00,
2013-07-06 10:40:00,81.0,67.2,29.86,South,179,5.0,15.0,63,0.00,,---,0.00,VWS V14.01,2013-07-06 15:40:00,
2013-07-06 10:55:00,80.2,66.9,29.86,SSE,161,4.0,14.0,64,0.00,,---,0.00,VWS V14.01,2013-07-06 15:55:00,
2013-07-06 11:10:00,80.6,67.8,29.86,SSE,157,4.0,13.0,65,0.00,,---,0.00,VWS V14.01,2013-07-06 16:10:00,
2013-07-06 11:40:00,82.5,66.7,29.85,SSE,167,8.0,17.0,59,0.00,,---,0.00,VWS V14.01,2013-07-06 16:40:00,
2013-07-06 12:10:00,85.0,68.6,29.84,SSE,167,7.0,15.0,58,0.00,,---,0.00,VWS V14.01,2013-07-06 17:10:00,
2013-07-06 12:25:00,85.7,68.7,29.83,SSE,161,15.0,17.0,57,0.00,,---,0.00,VWS V14.01,2013-07-06 17:25:00,
2013-07-06 12:40:00,86.0,68.0,29.83,SSE,148,10.0,20.0,55,0.00,,---,0.00,VWS V14.01,2013-07-06 17:40:00,
2013-07-06 12:55:00,86.3,68.2,29.83,SE,128,8.0,21.0,55,0.00,,---,0.00,VWS V14.01,2013-07-06 17:55:00,
2013-07-06 13:10:00,86.6,67.4,29.83,SSE,167,16.0,20.0,53,0.00,,---,0.00,VWS V14.01,2013-07-06 18:10:00,
2013-07-06 13:25:00,87.0,67.8,29.82,South,191,8.0,16.0,53,0.00,,---,0.00,VWS V14.01,2013-07-06 18:25:00,
2013-07-06 13:40:00,87.5,67.7,29.82,SSE,159,9.0,18.0,52,0.00,,---,0.00,VWS V14.01,2013-07-06 18:40:00,
2013-07-06 13:55:00,87.0,67.8,29.81,South,182,12.0,21.0,53,0.00,,---,0.00,VWS V14.01,2013-07-06 18:55:00,
2013-07-06 14:25:00,87.9,69.7,29.81,South,188,5.0,18.0,55,0.00,,---,0.00,VWS V14.01,2013-07-06 19:25:00,
2013-07-06 14:40:00,88.1,67.7,29.80,SSW,208,13.0,21.0,51,0.00,,---,0.00,VWS V14.01,2013-07-06 19:40:00,
2013-07-06 15:25:00,89.3,68.8,29.80,SSE,158,9.0,17.0,51,0.00,,---,0.00,VWS V14.01,2013-07-06 20:25:00,
2013-07-06 16:10:00,88.4,67.4,29.81,South,191,7.0,19.0,50,0.00,,---,0.00,VWS V14.01,2013-07-06 21:10:00,
2013-07-06 16:25:00,88.5,67.5,29.81,South,185,4.0,17.0,50,0.00,,---,0.00,VWS V14.01,2013-07-06 21:25:00,
2013-07-06 16:55:00,88.1,67.1,29.80,SE,140,12.0,16.0,50,0.00,,---,0.00,VWS V14.01,2013-07-06 21:55:00,
2013-07-06 17:10:00,86.5,68.4,29.80,SSE,157,8.0,13.0,55,0.00,,---,0.00,VWS V14.01,2013-07-06 22:10:00,
2013-07-06 17:25:00,85.7,67.7,29.80,SSE,150,8.0,14.0,55,0.00,,---,0.00,VWS V14.01,2013-07-06 22:25:00,
2013-07-06 17:40:00,85.7,67.2,29.80,South,185,5.0,10.0,54,0.00,,---,0.00,VWS V14.01,2013-07-06 22:40:00,
2013-07-06 18:25:00,84.9,66.9,29.81,SW,222,5.0,12.0,55,0.00,,---,0.00,VWS V14.01,2013-07-06 23:25:00,
2013-07-06 18:55:00,83.6,66.8,29.81,South,184,4.0,13.0,57,0.00,,---,0.00,VWS V14.01,2013-07-06 23:55:00,
2013-07-06 19:25:00,82.5,68.2,29.81,SW,226,5.0,9.0,62,0.00,,---,0.00,VWS V14.01,2013-07-07 00:25:00,
2013-07-06 19:55:00,80.6,66.8,29.82,South,171,2.0,11.0,63,0.00,,---,0.00,VWS V14.01,2013-07-07 00:55:00,
2013-07-06 20:40:00,79.5,64.4,29.82,SSE,163,5.0,11.0,60,0.00,,---,0.00,VWS V14.01,2013-07-07 01:40:00,
2013-07-06 20:55:00,79.2,64.1,29.82,SSE,157,6.0,8.0,60,0.00,,---,0.00,VWS V14.01,2013-07-07 01:55:00,
2013-07-06 21:10:00,78.8,63.8,29.82,SSE,167,4.0,8.0,60,0.00,,---,0.00,VWS V14.01,2013-07-07 02:10:00,
2013-07-06 21:40:00,78.7,64.1,29.82,SE,137,4.0,10.0,61,0.00,,---,0.00,VWS V14.01,2013-07-07 02:40:00,
2013-07-06 22:11:00,78.3,64.7,29.82,SSE,162,2.0,11.0,63,0.00,,---,0.00,VWS V14.01,2013-07-07 03:11:00,
2013-07-06 22:25:00,77.7,64.6,29.83,SE,142,2.0,8.0,64,0.00,,---,0.00,VWS V14.01,2013-07-07 03:25:00,
2013-07-06 22:55:00,77.8,64.7,29.83,SSE,161,1.0,9.0,64,0.00,,---,0.00,VWS V14.01,2013-07-07 03:55:00,
2013-07-06 23:10:00,77.7,65.0,29.83,SSE,157,1.0,9.0,65,0.00,,---,0.00,VWS V14.01,2013-07-07 04:10:00,
2013-07-06 23:25:00,77.5,65.3,29.84,SSE,152,0.0,7.0,66,0.00,,---,0.00,VWS V14.01,2013-07-07 04:25:00,
2013-07-06 23:40:00,77.1,66.6,29.84,SSE,152,2.0,5.0,70,0.00,,---,0.00,VWS V14.01,2013-07-07 04:40:00,
2013-07-06 23:55:00,76.0,66.3,29.84,SE,144,2.0,8.0,72,0.00,,---,0.00,VWS V14.01,2013-07-07 04:55:00,